This demonstration page uses our WeatherBlox Daily Observations layout. Learn more.

Left ArrowRight Arrow

34.02893, -84.19858

Hourly Observations for April 11, 2022

Temp ( °F °C ) Dew Point ( °F °C ) Humidity (%) Winds ( mph kmh ) Pressure ( in mb ) Visibility ( mi km ) Precip ( " mm )
12:53 am 00:53 Clear 59 15 38 3.3 46 46 S 7 11 30.06 1018 10 16 0.00 0.00
1:53 am 01:53 Clear 57 13.9 39 3.9 51 51 S 6 9 30.06 1018 10 16 0.00 0.00
2:53 am 02:53 Clear 55 12.8 42 5.6 62 62 SW 9 15 30.06 1018 10 16 0.00 0.00
3:53 am 03:53 Clear 56 13.3 43 6.1 62 62 SW 6 9 30.06 1018 10 16 0.00 0.00
4:53 am 04:53 Clear 51 10.6 43 6.1 74 74 SSW 8 13 30.07 1018 10 16 0.00 0.00
5:53 am 05:53 Clear 51 10.6 44 6.7 77 77 S 3 6 30.08 1019 10 16 0.00 0.00
6:53 am 06:53 Clear 46 7.8 42 5.6 86 86 Calm 30.09 1019 10 16 0.00 0.00
7:53 am 07:53 Sunny 46 7.8 44 6.7 93 93 Calm 30.12 1020 10 16 0.00 0.00
8:53 am 08:53 Sunny 56 13.3 47 8.3 72 72 Calm 30.13 1020 10 16 0.00 0.00
9:53 am 09:53 Sunny 60 15.6 49 9.4 67 67 VRB 5 7 30.14 1021 10 16 0.00 0.00
10:53 am 10:53 Mostly Cloudy 61 16.1 50 10 67 67 W 8 13 30.20 1023 10 16 0.00 0.00
11:53 am 11:53 Sunny 64 17.8 51 10.6 63 63 W 9 15 30.21 1023 10 16 0.00 0.00
12:53 pm 12:53 Sunny 67 19.4 51 10.6 57 57 WSW 6 9 30.19 1022 10 16 0.00 0.00
1:53 pm 13:53 Sunny 65 18.3 45 7.2 49 49 SSW 5 7 30.15 1021 10 16 0.00 0.00
2:53 pm 14:53 Mostly Sunny 68 20 41 5 38 38 SW 10 17 30.15 1021 10 16 0.00 0.00
3:53 pm 15:53 Sunny 67 19.4 45 7.2 45 45 VRB 6 9 30.12 1020 10 16 0.00 0.00
4:53 pm 16:53 Sunny 68 20 48 8.9 49 49 S 7 11 30.09 1019 10 16 0.00 0.00
5:53 pm 17:53 Mostly Cloudy 69 20.6 44 6.7 41 41 S 8 13 30.09 1019 10 16 0.00 0.00
6:53 pm 18:53 Partly Cloudy 67 19.4 40 4.4 37 37 SSE 3 6 30.10 1019 10 16 0.00 0.00
7:53 pm 19:53 Mostly Cloudy 66 18.9 42 5.6 42 42 SSE 5 7 30.11 1020 10 16 0.00 0.00
8:53 pm 20:53 Mostly Clear 64 17.8 42 5.6 45 45 SSE 3 6 30.09 1019 10 16 0.00 0.00
9:53 pm 21:53 Clear 58 14.4 43 6.1 58 58 Calm 30.10 1019 10 16 0.00 0.00
10:53 pm 22:53 Clear 54 12.2 43 6.1 67 67 Calm 30.11 1020 10 16 0.00 0.00
11:53 pm 23:53 Mostly Cloudy 53 11.7 46 7.8 77 77 Calm 30.10 1019 10 16 0.00 0.00

Powered by AerisWeather